Beckley, WV

9:28 PM EST on November 14, 2019 (GMT -0500)
Raleigh County Memorial

Weather History for KBKW - October, 2019

Change the Weather History Date:

Sunday, October 20, 2019

  Actual Average Record
Temperature  
Mean Temperature 54 °F 52 °F  
Max Temperature 59 °F 62 °F 85 °F (1920)
Min Temperature 48 °F 42 °F 18 °F (1972)
Degree Days  
Heating Degree Days 12 13  
Month to date heating degree days 153 212  
Since 1 July heating degree days 163 346  
Cooling Degree Days 0 0  
Month to date cooling degree days 40 2  
Year to date cooling degree days 948 552  
Growing Degree Days 4 (Base 50)    
Moisture  
Dew Point 50 °F    
Average Humidity 91    
Maximum Humidity 100    
Minimum Humidity 80    
Precipitation  
Precipitation 0.80 in 0.08 in 1.36 in (1961)
Month to date precipitation 4.28 1.61  
Year to date precipitation 36.10 34.28  
Snow  
Snow 0.00 in 0.00 in 7.00 in (1961)
Month to date snowfall 0.0 0.1  
Since 1 September snowfall 0.0 0.1  
Snow Depth 0.00 in    
Sea Level Pressure  
Sea Level Pressure 29.93 in    
Wind  
Wind Speed 4 mph ()    
Max Wind Speed 15 mph    
Max Gust Speed 21 mph    
Visibility 4.6 miles    
Events Fog , Rain    
T = Trace of Precipitation, MM = Missing Value Source: Averaged Metar Reports

Daily Weather History Graph

Daily Weather History Graph

Search for Another Location

Airport or City:

Astronomy

Oct. 20, 2019 Rise Set
Actual Time 7:37 AM EDT 6:40 PM EDT
Civil Twilight 7:10 AM EDT 7:07 PM EDT
Nautical Twilight 6:40 AM EDT 7:37 PM EDT
Astronomical Twilight 6:09 AM EDT 8:08 PM EDT
Moon 11:52 PM EDT (10/20) 1:59 PM EDT (10/20)
Length of Visible Light 11h 56m
Length of Day
11h 03m
Waning Gibbous, 59% of the Moon is Illuminated
Oct 20
Waning Gibbous
Oct 21
Last Quarter
Oct 27
New
Nov 4
First Quarter
Nov 12
Full

Hourly Weather History & Observations

Time (EDT) Temp. Dew Point Humidity Pressure Visibility Wind Dir Wind Speed Gust Speed Precip Events Conditions
12:51 AM 48.0 °F 45.0 °F 89% 29.91 in 8.0 mi SE 9.2 mph - 0.05 in Rain Light Rain
1:51 AM 48.0 °F 45.0 °F 89% 29.88 in 4.0 mi ESE 9.2 mph - 0.15 in Rain Heavy Rain
2:51 AM 48.0 °F 45.0 °F 89% 29.87 in 7.0 mi ESE 6.9 mph 16.1 mph 0.10 in Rain Light Rain
2:58 AM 48.0 °F 45.0 °F 89% 29.88 in 7.0 mi ESE 9.2 mph 16.1 mph 0.01 in Rain Light Rain
3:51 AM 48.9 °F 46.0 °F 90% 29.83 in 8.0 mi ESE 8.1 mph - 0.09 in Rain Light Rain
4:21 AM 48.9 °F 46.0 °F 90% 29.86 in 5.0 mi Variable 3.5 mph - 0.04 in Rain Rain
4:51 AM 48.9 °F 46.0 °F 90% 29.81 in 5.0 mi ESE 9.2 mph - 0.11 in Rain Rain
5:31 AM 48.9 °F 46.9 °F 93% 29.86 in 8.0 mi West 10.4 mph - 0.04 in Rain Light Rain
5:51 AM 48.9 °F 46.0 °F 90% 29.83 in 10.0 mi SE 4.6 mph - 0.05 in   Overcast
6:51 AM 50.0 °F 46.0 °F 86% 29.84 in 10.0 mi Calm Calm - N/A   Overcast
6:58 AM 50.0 °F 46.9 °F 89% 29.86 in 10.0 mi Calm Calm - N/A   Overcast
7:31 AM 50.0 °F 46.9 °F 89% 29.87 in 10.0 mi Calm Calm - N/A   Overcast
7:49 AM 50.0 °F 46.4 °F 87% 29.88 in 10.0 mi Calm Calm - N/A   Overcast
7:51 AM 50.0 °F 46.9 °F 89% 29.86 in 10.0 mi Calm Calm - N/A   Overcast
8:32 AM 50.0 °F 46.9 °F 89% 29.90 in 2.5 mi NW 3.5 mph - 0.02 in Rain Light Rain
8:40 AM 50.0 °F 48.0 °F 93% 29.90 in 4.0 mi NW 4.6 mph - 0.02 in Rain Light Rain
8:51 AM 50.0 °F 48.0 °F 93% 29.89 in 2.0 mi WNW 3.5 mph - 0.02 in Rain Light Rain
8:58 AM 50.0 °F 48.0 °F 93% 29.91 in 1.5 mi West 4.6 mph - 0.01 in Rain Light Rain
9:00 AM 50.0 °F 48.0 °F 93% 29.91 in 1.5 mi West 4.6 mph - 0.01 in Rain Light Rain
9:13 AM 50.0 °F 48.0 °F 93% 29.91 in 1.0 mi West 3.5 mph - 0.03 in Rain Rain
9:20 AM 50.0 °F 48.0 °F 93% 29.91 in 1.5 mi West 3.5 mph - 0.03 in Rain Light Rain
9:29 AM 50.0 °F 48.0 °F 93% 29.92 in 2.0 mi West 3.5 mph - 0.04 in Rain Light Rain
9:51 AM 51.1 °F 48.9 °F 92% 29.91 in 4.0 mi WSW 3.5 mph - 0.05 in   Overcast
10:24 AM 52.0 °F 48.9 °F 89% 29.93 in 1.8 mi NNW 4.6 mph - 0.00 in Rain Light Rain
10:37 AM 52.0 °F 48.9 °F 89% 29.93 in 0.8 mi North 3.5 mph - 0.05 in Rain Rain
10:44 AM 52.0 °F 48.9 °F 89% 29.93 in 0.8 mi NNE 4.6 mph - 0.07 in Rain Rain
10:51 AM 52.0 °F 50.0 °F 93% 29.93 in 0.8 mi NE 4.6 mph - 0.10 in Rain Rain
11:01 AM 52.0 °F 48.9 °F 89% 29.93 in 1.0 mi Calm Calm - 0.02 in Rain Light Rain
11:38 AM 53.1 °F 51.1 °F 93% 29.94 in 1.2 mi Calm Calm - 0.06 in Rain Light Rain
11:51 AM 54.0 °F 51.1 °F 90% 29.93 in 1.5 mi Calm Calm - 0.07 in Rain Light Rain
12:05 PM 55.0 °F 52.0 °F 89% 29.94 in 2.0 mi Calm Calm - 0.00 in   Overcast
12:14 PM 55.9 °F 52.0 °F 87% 29.94 in 3.0 mi North 3.5 mph - 0.01 in   Overcast
12:51 PM 55.9 °F 53.1 °F 90% 29.93 in 4.0 mi North 3.5 mph - 0.01 in   Overcast
1:51 PM 57.9 °F 55.0 °F 90% 29.91 in 10.0 mi North 8.1 mph - N/A   Overcast
2:51 PM 59.0 °F 54.0 °F 83% 29.90 in 10.0 mi North 8.1 mph - N/A   Overcast
3:51 PM 57.9 °F 54.0 °F 87% 29.91 in 10.0 mi North 3.5 mph - N/A   Overcast
4:51 PM 57.9 °F 54.0 °F 87% 29.93 in 10.0 mi West 6.9 mph - N/A   Overcast
5:51 PM 57.0 °F 54.0 °F 89% 29.95 in 3.0 mi NW 5.8 mph - N/A   Overcast
6:21 PM 55.9 °F 54.0 °F 93% 29.97 in 2.5 mi NW 3.5 mph - N/A   Overcast
6:29 PM 55.9 °F 54.0 °F 93% 29.97 in 1.5 mi WNW 4.6 mph - N/A   Overcast
6:44 PM 55.9 °F 54.0 °F 93% 29.98 in 3.0 mi NW 3.5 mph - N/A   Overcast
6:51 PM 55.9 °F 54.0 °F 93% 29.96 in 3.0 mi WNW 4.6 mph - N/A   Overcast
7:51 PM 55.9 °F 54.0 °F 93% 29.98 in 4.0 mi NW 4.6 mph - N/A   Overcast
8:51 PM 55.0 °F 54.0 °F 96% 29.99 in 4.0 mi NW 4.6 mph - N/A   Overcast
9:28 PM 55.0 °F 53.1 °F 93% 30.02 in 6.0 mi West 3.5 mph - N/A   Overcast
9:36 PM 55.0 °F 53.1 °F 93% 30.02 in 5.0 mi West 3.5 mph - N/A   Overcast
9:51 PM 55.0 °F 53.1 °F 93% 30.01 in 8.0 mi West 3.5 mph - N/A   Overcast
10:16 PM 55.0 °F 53.1 °F 93% 30.03 in 10.0 mi WSW 3.5 mph - N/A   Overcast
10:47 PM 51.8 °F 51.8 °F 100% 30.04 in 2.0 mi Calm Calm - N/A   Scattered Clouds
10:51 PM 53.1 °F 51.1 °F 93% 30.03 in 1.8 mi Calm Calm - N/A   Scattered Clouds
10:56 PM 52.0 °F 50.0 °F 93% 30.04 in 0.5 mi SSE 3.5 mph - N/A Fog Fog
11:05 PM 52.0 °F 50.0 °F 93% 30.04 in 0.2 mi Calm Calm - N/A Fog Fog
11:51 PM 51.1 °F 50.0 °F 96% 30.03 in 0.2 mi South 4.6 mph - N/A Fog Fog